Mt. Pocono, PA

4:15 AM EDT on April 30, 2017 (GMT -0400)
Pocono Mountains Municipal

Weather History for KMPO - April, 2013

Change the Weather History Date:

Friday, April 19, 2013

  Actual Average Record
Temperature  
Mean Temperature 56 °F 47 °F  
Max Temperature 67 °F 57 °F 86 °F (1976)
Min Temperature 45 °F 37 °F 18 °F (1905)
Degree Days  
Heating Degree Days 9 18  
Month to date heating degree days 367 416  
Since 1 July heating degree days 6239 6514  
Cooling Degree Days 0 0  
Month to date cooling degree days 1 0  
Year to date cooling degree days 1 0  
Growing Degree Days 7 (Base 50)    
Moisture  
Dew Point 56 °F    
Average Humidity 91    
Maximum Humidity 100    
Minimum Humidity 81    
Precipitation  
Precipitation 1.09 in 0.11 in 1.09 in (2013)
Month to date precipitation 2.03 2.79  
Year to date precipitation 8.89 11.88  
Sea Level Pressure  
Sea Level Pressure 29.84 in    
Wind  
Wind Speed 15 mph (SSW)    
Max Wind Speed 28 mph    
Max Gust Speed 40 mph    
Visibility 4 miles    
Events Fog , Rain    
T = Trace of Precipitation, MM = Missing Value Source: NWS Daily Summary

Daily Weather History Graph

Daily Weather History Graph

Search for Another Location

Airport or City:

Trip Planner

Search our weather history database for the weather conditions in past years. The results will help you decide how hot, cold, wet, or windy it might be!

Date:

Astronomy

Apr. 19, 2013 Rise Set
Actual Time 6:15 AM EDT 7:46 PM EDT
Civil Twilight 5:46 AM EDT 8:15 PM EDT
Nautical Twilight 5:12 AM EDT 8:49 PM EDT
Astronomical Twilight 4:35 AM EDT 9:27 PM EDT
Moon 1:24 PM EDT (4/19) 2:33 AM EDT (4/19)
Length of Visible Light 14h 28m
Length of Day
13h 30m
First Quarter, 61% of the Moon is Illuminated
Apr 19
First Quarter
Apr 25
Full
May 2
Last Quarter
May 9
New
May 18
First Quarter

Hourly Weather History & Observations

Time (EDT) Temp. Windchill Dew Point Humidity Pressure Visibility Wind Dir Wind Speed Gust Speed Precip Events Conditions
12:41 AM 53.6 °F - 53.6 °F 100% 30.05 in 1.0 mi South 10.4 mph 21.9 mph N/A   Mist
12:46 AM 53.6 °F - 53.6 °F 100% 30.05 in 3.0 mi South 10.4 mph 19.6 mph N/A   Overcast
12:53 AM 54.0 °F - 53.1 °F 97% 30.05 in 4.0 mi South 11.5 mph 18.4 mph N/A   Overcast
1:44 AM 55.4 °F - 53.6 °F 94% 30.02 in 2.0 mi South 11.5 mph 19.6 mph N/A   Overcast
1:51 AM 55.4 °F - 53.6 °F 94% 30.01 in 1.2 mi South 11.5 mph 20.7 mph N/A   Overcast
1:53 AM 55.0 °F - 54.0 °F 96% 30.02 in 1.0 mi South 13.8 mph 20.7 mph N/A   Overcast
2:01 AM 55.4 °F - 53.6 °F 94% 30.00 in 0.5 mi South 10.4 mph 18.4 mph N/A Fog Fog
2:08 AM 55.4 °F - 53.6 °F 94% 30.00 in 0.2 mi South 12.7 mph 20.7 mph N/A Fog Fog
2:53 AM 55.0 °F - 54.0 °F 96% 29.99 in 0.2 mi South 6.9 mph - N/A Fog Fog
3:53 AM 55.9 °F - 55.0 °F 97% 29.98 in 0.2 mi SSW 13.8 mph 25.3 mph N/A Fog Fog
4:08 AM 55.4 °F - 55.4 °F 100% 29.96 in 0.5 mi South 13.8 mph 19.6 mph N/A Fog Fog
4:40 AM 55.4 °F - 55.4 °F 100% 29.94 in 2.0 mi South 11.5 mph 20.7 mph N/A   Overcast
4:48 AM 55.4 °F - 55.4 °F 100% 29.94 in 3.0 mi South 12.7 mph 20.7 mph N/A   Overcast
4:53 AM 55.9 °F - 55.0 °F 97% 29.95 in 2.5 mi South 12.7 mph 20.7 mph N/A   Overcast
5:05 AM 55.4 °F - 55.4 °F 100% 29.93 in 1.2 mi South 16.1 mph 24.2 mph N/A   Overcast
5:40 AM 55.4 °F - 55.4 °F 100% 29.92 in 0.5 mi South 11.5 mph - N/A Fog Fog
5:53 AM 55.9 °F - 55.0 °F 97% 29.93 in 0.5 mi South 10.4 mph - N/A Fog Fog
6:07 AM 55.4 °F - 55.4 °F 100% 29.92 in 1.5 mi South 12.7 mph - N/A   Overcast
6:53 AM 55.9 °F - 55.0 °F 97% 29.94 in 2.5 mi South 13.8 mph 21.9 mph N/A   Overcast
7:08 AM 55.4 °F - 55.4 °F 100% 29.92 in 1.0 mi South 13.8 mph 23.0 mph N/A   Overcast
7:16 AM 55.4 °F - 55.4 °F 100% 29.92 in 0.5 mi South 13.8 mph 23.0 mph N/A Fog Fog
7:50 AM 55.4 °F - 55.4 °F 100% 29.91 in 1.0 mi South 10.4 mph 20.7 mph N/A   Overcast
7:53 AM 55.9 °F - 55.0 °F 97% 29.92 in 1.0 mi South 11.5 mph 18.4 mph N/A   Overcast
8:05 AM 55.4 °F - 55.4 °F 100% 29.91 in 0.8 mi South 11.5 mph 19.6 mph N/A   Overcast
8:26 AM 57.2 °F - 55.4 °F 94% 29.91 in 0.2 mi SSW 17.3 mph 24.2 mph N/A Fog Fog
8:44 AM 57.2 °F - 55.4 °F 94% 29.90 in 0.8 mi SSW 13.8 mph 23.0 mph 0.00 in Rain Light Rain
8:51 AM 57.2 °F - 55.4 °F 94% 29.90 in 1.2 mi SSW 10.4 mph 19.6 mph 0.00 in Rain Light Rain
8:53 AM 57.0 °F - 55.9 °F 96% 29.91 in 1.5 mi North - - 0.00 in   Mist
9:16 AM 57.2 °F - 55.4 °F 94% 29.89 in 3.0 mi SSW 10.4 mph 21.9 mph N/A   Mist
9:22 AM 57.2 °F - 55.4 °F 94% 29.88 in 2.5 mi SSW 15.0 mph 19.6 mph N/A   Overcast
9:53 AM 57.0 °F - 55.9 °F 96% 29.88 in 0.5 mi South 15.0 mph 21.9 mph 0.00 in Fog Fog
10:07 AM 57.2 °F - 55.4 °F 94% 29.87 in 2.0 mi SSW 12.7 mph 20.7 mph 0.01 in Rain Light Rain
10:16 AM 57.2 °F - 55.4 °F 94% 29.87 in 4.0 mi South 11.5 mph 19.6 mph 0.01 in Rain Light Rain
10:40 AM 59.0 °F - 57.2 °F 94% 29.86 in 2.5 mi South 16.1 mph 24.2 mph 0.02 in Rain Light Rain
10:53 AM 59.0 °F - 57.0 °F 93% 29.86 in 4.0 mi South 18.4 mph 27.6 mph 0.02 in   Overcast
11:05 AM 59.0 °F - 57.2 °F 94% 29.85 in 0.5 mi South 16.1 mph 24.2 mph N/A Fog Fog
11:28 AM 59.0 °F - 57.2 °F 94% 29.85 in 2.0 mi South 12.7 mph 23.0 mph 0.00 in Rain Light Rain
11:38 AM 59.0 °F - 57.2 °F 94% 29.84 in 5.0 mi South 15.0 mph 27.6 mph 0.00 in Rain Light Rain
11:53 AM 59.0 °F - 57.0 °F 93% 29.83 in 9.0 mi South 13.8 mph 25.3 mph 0.00 in   Overcast
12:08 PM 60.8 °F - 57.2 °F 88% 29.83 in 8.0 mi South 19.6 mph 25.3 mph 0.01 in   Overcast
12:42 PM 60.8 °F - 57.2 °F 88% 29.82 in 9.0 mi South 16.1 mph 24.2 mph 0.01 in Rain Light Rain
12:53 PM 61.0 °F - 57.9 °F 90% 29.81 in 6.0 mi South 13.8 mph 23.0 mph 0.01 in Rain Light Rain
1:53 PM 62.1 °F - 59.0 °F 90% 29.78 in 10.0 mi South 17.3 mph 25.3 mph 0.00 in Rain Light Rain
2:53 PM 64.9 °F - 59.0 °F 81% 29.73 in 10.0 mi South 20.7 mph 26.5 mph 0.00 in   Overcast
3:01 PM 64.4 °F - 59.0 °F 83% 29.73 in 10.0 mi South 12.7 mph 26.5 mph N/A   Overcast
3:53 PM 64.9 °F - 60.1 °F 84% 29.65 in 10.0 mi SSE 17.3 mph 28.8 mph N/A   Overcast
4:53 PM 66.0 °F - 60.1 °F 81% 29.65 in 10.0 mi South 17.3 mph 26.5 mph N/A   Overcast
5:02 PM 66.2 °F - 60.8 °F 83% 29.67 in 10.0 mi South 13.8 mph 24.2 mph N/A   Overcast
5:28 PM 66.2 °F - 60.8 °F 83% 29.66 in 10.0 mi South 16.1 mph 21.9 mph 0.00 in Rain Light Rain
5:53 PM 64.9 °F - 60.1 °F 84% 29.64 in 9.0 mi South 15.0 mph 23.0 mph 0.01 in Rain Light Rain
6:37 PM 64.4 °F - 60.8 °F 88% 29.65 in 2.5 mi South 15.0 mph 27.6 mph 0.06 in Rain Rain
6:46 PM 64.4 °F - 60.8 °F 88% 29.64 in 2.0 mi SSW 16.1 mph 20.7 mph 0.10 in Rain Rain
6:53 PM 64.0 °F - 61.0 °F 90% 29.62 in 4.0 mi South 13.8 mph 21.9 mph 0.11 in Rain Light Rain
7:53 PM 64.0 °F - 61.0 °F 90% 29.60 in 6.0 mi South 13.8 mph 26.5 mph 0.04 in Rain Light Rain
8:04 PM 64.4 °F - 60.8 °F 88% 29.66 in 2.5 mi West 27.6 mph 40.3 mph 0.06 in Rain Rain
8:06 PM 62.6 °F - 59.0 °F 88% 29.69 in 1.2 mi WSW 23.0 mph 40.3 mph 0.16 in Rain Rain
8:10 PM 59.0 °F - 55.4 °F 88% 29.69 in 0.8 mi SW 17.3 mph 40.3 mph 0.28 in Rain Heavy Rain
8:22 PM 57.2 °F - 55.4 °F 94% 29.66 in 1.5 mi WSW 13.8 mph 26.5 mph 0.45 in Rain Heavy Rain
8:28 PM 57.2 °F - 55.4 °F 94% 29.65 in 3.0 mi WSW 10.4 mph 19.6 mph 0.48 in Rain Rain
8:53 PM 57.0 °F - 55.0 °F 93% 29.66 in 4.0 mi West 12.7 mph - 0.55 in Rain Rain
9:01 PM 57.2 °F - 53.6 °F 88% 29.69 in 4.0 mi WNW 17.3 mph 29.9 mph 0.03 in Rain Rain
9:31 PM 53.6 °F - 48.2 °F 82% 29.72 in 4.0 mi West 20.7 mph 35.7 mph 0.18 in Rain Heavy Rain
9:53 PM 52.0 °F - 48.9 °F 89% 29.70 in 5.0 mi NW 12.7 mph - 0.26 in Rain Rain
10:53 PM 48.0 °F - 42.1 °F 80% 29.73 in 9.0 mi WNW 13.8 mph 21.9 mph 0.03 in Rain Light Rain
11:53 PM 46.0 °F 40.2 °F 42.1 °F 86% 29.72 in 10.0 mi WNW 12.7 mph - 0.02 in Rain Light Rain